Torna al catalogo

TOMORROW-S6

AttivoComunicazioniSSO
NORAD 63225·PAYLOAD·🇺🇸 United States

Lanciato Mar 15, 2025 da Vandenberg Space Force Base

Loading…

Prossimi Passaggi (prossime 24 ore)

TLE

AggiornatoSource: Space-Track

Epoca: Sep 13, 2026, 16:22 UTC

1 63225U 25052R   26256.68255744  .00003514  00000-0  15213-3 0  9992
2 63225  97.3874 148.2031 0005156 164.3665 195.7732 15.23059686 83319

Traccia TOMORROW-S6 in tempo reale con AllMySat

Download on the App Store